Temp_Advection
nan nan nan nan nan nan nan nan nan nan nan nan nan nan nan nan nan nan nan nan nan nan nan nan nan nan nan nan nan nan nan nan nan nan nan nan nan nan nan nan nan nan nan nan nan nan nan nan nan nan nan nan nan nan
nan 0 -0 0 0 0 0 -0 0 0 -0 0 0 0 1 1 1 1 0 0 0 0 0 -0 -0 0 -0 0 0 -0 -1 -1 0 0 0 0 -0 0 0 0 0 -0 -1 -0 -0 -0 -1 0 0 0 -1 -0 0 nan
nan 0 0 0 0 0 0 0 0 0 0 0 0 1 1 1 1 1 0 0 0 0 -0 -0 -0 -0 -0 0 0 -0 -0 -0 0 0 0 0 0 0 0 -0 0 -0 -0 -0 0 -0 -0 0 0 0 1 0 0 nan
nan -0 0 -0 0 0 0 0 0 -0 0 0 0 0 0 0 0 0 0 0 0 -0 0 -0 -0 -0 0 1 -1 -1 -0 -0 -1 0 -0 0 0 0 0 0 0 0 1 -0 0 -0 0 0 0 0 0 0 0 nan
nan -0 -0 0 0 0 -0 -0 0 -0 0 0 0 -0 0 0 0 0 0 0 -0 0 0 0 -0 -0 0 0 -0 -1 1 1 -1 0 0 0 0 0 -0 0 0 -0 -0 -1 -0 -0 -0 0 1 1 0 0 0 nan
nan 0 -0 -0 0 0 -0 -0 -0 -0 0 0 0 -0 -0 0 0 0 -0 -0 -0 0 -0 -0 0 -0 -0 -0 -1 -0 1 -1 -0 -0 -0 0 0 -0 0 -0 -1 -0 0 -1 -0 -0 0 -0 1 1 0 0 0 nan
nan -0 -0 -0 -0 0 0 -0 -0 0 0 -0 0 0 0 0 -0 0 -0 -0 0 0 -0 -0 0 0 -0 -0 -0 -0 0 0 0 0 0 0 0 0 0 -0 -0 -0 -0 0 -0 0 0 1 1 1 0 0 0 nan
nan -0 -0 -0 -0 0 0 0 -0 0 -0 -0 -0 0 0 0 0 0 0 0 0 0 -0 -0 0 -0 -0 0 0 0 0 0 -0 0 0 0 0 0 -0 -1 -0 0 0 1 1 1 -0 1 0 1 1 0 0 nan
nan -0 -0 0 -0 -0 0 0 0 0 0 -0 -0 -1 -0 -0 -0 0 0 0 0 0 -0 -0 -0 -0 -0 0 0 0 0 0 0 -0 0 0 0 -0 -0 -0 1 1 0 1 2 1 1 1 1 0 1 1 0 nan
nan -0 -0 -0 0 -0 -0 0 0 0 0 0 0 -0 -0 -0 0 0 -0 -0 -0 -0 -0 -0 0 -0 -0 0 0 -0 -0 0 -0 -0 -0 -0 -0 -1 -1 0 1 1 1 0 0 1 1 1 1 0 0 0 0 nan
nan 0 0 -0 -0 -0 -0 -0 0 0 0 0 0 -0 -0 -0 -0 -0 -0 0 -0 -0 -0 -0 0 -0 0 0 -0 0 0 -0 -0 0 0 -0 -0 0 1 1 1 1 1 1 0 0 1 1 0 0 0 1 0 nan
nan -0 -0 -0 -0 -0 -0 -0 -0 0 0 0 0 0 -0 -0 -0 -0 -0 -0 0 -0 -0 0 -0 -0 0 0 0 0 0 -0 -0 0 0 0 -0 2 2 1 1 1 1 1 1 1 1 1 1 1 1 1 0 nan
nan 0 -0 -0 -0 -0 -0 -0 -0 -0 -0 -0 -0 -0 -0 0 -0 -0 -0 -0 -0 -0 -0 -0 -0 0 -0 0 0 0 0 0 -0 0 -0 -0 -0 0 1 1 1 1 1 1 1 2 1 1 1 1 1 1 1 nan
nan 0 0 -0 -0 -0 -0 -0 -0 0 0 -0 -0 -0 -0 -0 0 -0 -0 -0 -0 -0 -0 -0 -0 -0 0 -0 -0 0 -0 -0 0 0 0 0 1 -0 0 1 1 1 1 1 1 1 1 1 1 1 1 1 1 nan
nan 0 0 0 -0 -0 -0 0 0 0 0 -0 -0 -0 0 0 0 -0 -0 -0 -0 0 -0 -0 0 -0 -0 0 0 -0 0 -0 0 0 0 0 1 -0 -0 0 0 0 1 1 1 0 1 1 1 1 1 1 1 nan
nan -0 0 -0 0 -0 0 0 0 0 -0 -0 -0 0 0 -0 -0 -0 0 0 0 0 -0 -0 -0 0 -0 -0 -0 -0 0 0 0 0 1 0 0 0 0 0 1 1 0 0 0 0 0 0 0 0 0 0 0 nan
nan -0 -1 -0 -0 0 0 0 0 0 -0 -0 -0 0 -0 0 0 0 -0 -0 -0 0 -0 -0 0 -0 0 -0 0 0 0 0 -0 -0 1 1 0 0 0 0 1 1 1 0 0 0 0 0 0 0 0 0 0 nan
nan -0 -0 -0 -1 -0 -0 -0 -0 -0 -0 -0 -0 -0 0 -0 -0 -0 0 -0 0 -0 0 0 -0 -0 -0 0 -0 0 0 0 -0 -0 0 0 0 0 1 0 0 0 0 0 0 0 0 0 0 0 0 0 0 nan
nan -0 -0 -0 -0 -0 -0 -0 -0 -0 0 -0 -0 -0 -0 -0 -0 -0 -0 -0 -0 -0 -0 -0 -0 0 0 -0 -0 0 -0 -0 -0 0 0 1 0 0 0 0 -0 -0 -0 -0 -0 0 0 0 0 0 0 0 0 nan
nan -0 -0 -0 -0 -0 -0 -0 -0 0 0 0 -0 -0 -0 0 0 -0 -0 -0 -0 -0 -0 0 -0 0 0 0 -0 -0 -0 -0 -1 -0 -0 0 0 0 0 -0 0 0 -0 -0 -0 -0 -0 0 0 0 0 0 0 nan
nan -0 -0 -0 0 -0 -0 -0 -0 -0 -0 -0 0 0 0 0 0 0 -0 -0 0 0 -0 -0 0 0 -0 0 0 0 -0 0 -0 -0 -0 -0 0 0 -0 -0 -0 -0 -0 -0 -0 -0 0 0 0 0 0 0 0 nan
nan -0 -0 -0 0 0 -0 -0 0 0 0 -0 0 0 0 0 -0 -0 0 -0 -0 -0 -0 -0 0 0 0 0 0 0 0 0 0 0 0 -0 -0 0 -0 -0 -0 -0 -0 -0 -0 -0 -0 -0 0 0 0 0 0 nan
nan -0 -0 -0 -0 -0 -0 -0 0 -0 -0 -0 0 0 0 -0 -0 0 0 -0 -0 -0 -0 0 0 0 0 0 0 0 0 0 0 0 0 0 -0 -0 -0 -0 -0 -0 -0 -0 -0 -0 -0 -0 -0 0 0 0 0 nan
nan -0 -0 0 0 -0 0 -0 -0 -0 0 0 -0 -0 0 -0 0 -0 -0 -0 -0 0 0 0 0 0 0 0 0 0 0 0 0 -0 -0 -0 -0 -0 -0 -0 -0 -0 -0 -0 -0 -0 0 0 0 0 0 0 0 nan
nan -0 0 -0 -0 -0 -0 -0 0 0 0 0 0 0 -0 -0 -0 -0 -0 -0 -1 0 0 0 0 0 -0 -0 0 0 0 0 0 -0 -0 -0 -0 -0 -0 -0 -0 0 0 -0 -0 0 0 0 0 0 0 0 0 nan
nan -0 -0 -0 -0 -0 0 0 -0 0 0 0 -0 -0 -0 -0 0 -0 -0 -1 -0 0 -0 -0 -0 -0 -0 -0 -0 0 0 0 0 0 -0 -0 -0 -0 -0 -0 -0 -0 -0 0 0 0 0 0 0 0 0 0 0 nan
nan -0 -0 -0 -0 -0 -0 -0 0 -0 -0 -0 -0 0 0 0 -0 0 -0 -0 -0 -0 -0 -0 -0 -0 -0 -0 -0 -0 -0 0 0 0 0 0 0 -0 -0 -0 -0 0 0 1 0 0 0 0 0 1 0 0 -0 nan
nan -0 0 1 0 0 -0 -0 0 -0 -0 0 -0 0 0 0 -0 -0 -0 -0 -0 -0 -0 -0 -0 -0 -0 -0 -0 -0 -0 -0 -0 0 0 0 0 0 0 0 0 1 1 1 0 0 0 0 1 0 0 -0 -0 nan
nan 0 -0 -0 0 0 0 -0 -0 0 -0 -0 -0 0 0 -0 -0 -0 -0 -0 -0 -0 -0 -0 -0 -0 -0 -0 -0 -1 -0 -0 -0 0 1 0 0 0 0 0 1 1 1 0 0 0 0 0 1 0 0 0 0 nan
nan 0 -0 -0 0 0 -0 0 -0 -0 0 -0 -0 -0 -0 0 0 0 0 0 0 0 -0 -0 -0 -0 -0 -1 -1 -0 -0 -0 0 -0 -0 0 0 0 1 1 1 0 0 0 0 0 0 0 0 0 0 0 0 nan
nan 0 -0 -0 -0 0 -0 -0 -0 -0 0 0 0 0 -0 -0 -0 -0 -0 0 0 0 0 0 0 -0 -0 -0 -1 -1 -1 -1 -0 -0 -0 0 0 0 0 0 0 1 1 0 0 1 1 0 0 0 1 0 0 nan
nan -0 -0 0 0 0 -0 -0 -0 -0 -0 -0 -0 -0 0 -0 -0 -0 0 -0 0 0 0 0 0 0 -0 -0 -1 -1 -1 -0 -0 -1 -0 0 -0 -0 -0 -0 0 1 1 1 1 1 1 1 1 1 0 0 0 nan
nan nan nan nan nan nan nan nan nan nan nan nan nan nan nan nan nan nan nan nan nan nan nan nan nan nan nan nan nan nan nan nan nan nan nan nan nan nan nan nan nan nan nan nan nan nan nan nan nan nan nan nan nan nan
Wind_Speed
21 23 26 31 35 40 42 40 36 10 5 21 30 32 33 36 38 43 25 15 19 5 2 2 2 5 5 5 2 6 0 8 2 13 8 3 3 6 3 5 13 8 7 3 3 2 7 9 6 10 10 10 17 20
20 22 25 29 33 37 40 43 38 10 1 11 32 30 31 33 34 35 27 23 16 9 4 8 6 6 10 10 6 5 11 7 8 5 3 4 3 4 9 6 4 7 8 6 8 6 7 7 8 24 26 18 15 25
20 21 24 27 31 36 37 40 39 12 5 7 22 27 30 32 32 34 25 23 15 6 7 14 10 8 9 7 8 5 6 9 5 5 4 3 4 4 5 5 7 6 10 5 7 7 6 7 10 14 20 20 18 22
20 22 23 26 29 33 33 36 39 19 7 3 13 14 21 24 28 34 26 19 23 4 2 6 13 12 19 23 21 20 22 30 17 7 2 2 3 2 4 5 5 5 14 10 3 3 7 9 17 19 18 22 19 17
20 21 22 24 26 30 30 31 38 15 8 10 9 9 12 17 19 23 23 20 21 12 1 3 8 9 9 12 19 22 24 29 20 3 1 3 2 3 2 1 4 4 8 10 5 9 9 11 23 23 27 26 22 21
20 20 21 22 24 27 30 24 28 34 6 8 10 9 14 18 21 22 7 20 24 22 3 2 4 6 9 15 15 14 32 33 20 8 2 4 5 4 1 2 6 4 3 20 6 20 17 24 25 26 28 24 23 21
19 18 19 21 22 23 27 21 16 18 29 21 8 12 18 18 21 20 5 5 22 21 5 2 2 4 7 5 3 1 9 4 4 5 2 5 4 8 3 3 8 7 12 12 15 26 21 31 26 26 25 24 22 20
18 18 17 20 21 21 22 21 12 9 13 26 9 12 20 24 27 24 9 4 18 21 4 2 2 3 4 2 1 4 3 3 5 3 3 2 7 3 3 7 20 18 20 23 27 26 27 31 29 25 23 25 21 20
18 18 19 19 21 21 20 20 11 8 6 7 18 16 14 6 3 9 17 16 20 6 2 2 3 3 3 2 2 2 3 2 2 1 3 3 2 3 5 5 21 26 18 25 29 31 32 31 28 23 22 22 22 18
17 18 18 19 20 21 20 21 8 7 3 2 5 4 4 5 10 8 2 2 3 3 3 2 4 1 1 1 2 1 2 2 1 2 6 2 3 7 8 12 25 25 29 29 28 19 22 25 24 19 17 18 18 15
20 19 19 19 20 19 18 18 14 5 4 5 2 2 3 8 3 2 3 1 2 2 3 2 3 2 3 2 2 3 1 2 1 1 3 3 1 4 20 27 26 24 20 18 20 18 20 21 18 17 14 13 13 15
24 21 19 20 19 18 17 14 15 5 1 1 2 3 7 5 6 3 3 4 2 2 1 0 3 4 3 3 2 1 2 2 1 4 4 4 4 20 32 28 26 25 22 22 19 19 20 21 19 18 17 14 13 14
24 22 18 18 19 18 15 12 9 7 4 2 1 2 4 3 5 3 2 1 2 2 5 5 2 3 2 6 2 2 2 0 1 3 1 3 9 23 26 25 23 20 18 18 18 19 19 20 19 19 16 14 16 16
20 18 17 21 21 19 14 10 7 4 3 3 1 3 2 3 3 1 3 3 4 2 11 9 2 3 3 2 1 4 2 2 2 2 2 2 19 25 25 21 21 17 15 16 15 14 14 14 15 16 18 16 19 19
16 15 15 22 23 16 9 5 6 6 3 3 4 2 2 3 4 3 6 6 3 10 9 3 1 3 2 3 2 3 3 1 2 4 3 10 25 27 25 21 21 20 18 16 13 12 11 11 13 16 16 17 16 15
14 11 13 21 23 12 8 4 5 4 2 3 3 1 1 1 2 3 5 6 3 3 1 3 1 3 1 3 2 2 2 3 2 1 14 24 25 26 24 20 20 21 18 15 13 12 12 12 11 13 13 13 14 15
8 6 19 22 21 7 8 5 3 2 2 3 2 1 4 5 4 4 6 6 4 3 1 1 2 3 2 0 3 2 1 2 5 13 18 24 26 26 22 21 20 20 18 14 13 11 11 10 11 13 13 11 10 9
13 16 14 13 18 6 5 4 2 1 3 3 1 2 2 3 3 1 3 8 6 4 4 1 3 2 2 1 3 2 4 14 17 18 19 20 22 21 18 16 15 15 14 13 12 12 14 11 11 12 13 14 14 13
15 16 13 9 12 8 4 3 2 0 1 3 4 6 4 2 3 1 2 2 2 2 3 3 2 1 1 1 3 10 11 10 13 12 14 15 13 12 11 12 15 13 12 13 13 13 14 13 11 11 12 15 16 15
10 12 10 6 4 1 3 3 2 4 3 4 4 5 4 3 2 1 2 3 4 3 1 1 2 2 1 0 5 11 12 11 16 16 16 14 11 11 14 16 15 14 15 14 11 12 12 12 11 11 12 13 13 12
8 8 10 4 2 2 4 3 4 1 2 1 4 6 3 7 3 3 4 4 3 2 2 2 4 1 3 2 7 11 16 17 16 15 18 16 14 14 15 15 15 15 17 18 16 15 15 15 14 12 12 12 10 9
5 11 6 3 2 3 4 4 2 2 2 3 3 4 3 2 3 7 7 6 3 6 8 8 5 4 4 6 9 10 12 14 14 14 16 17 19 19 19 18 18 17 17 18 16 15 15 15 14 13 12 12 12 14
7 6 3 3 3 3 5 1 2 6 3 2 4 2 2 2 7 7 2 6 7 10 8 7 7 5 5 9 10 8 12 15 15 18 19 19 21 20 19 18 17 19 18 17 16 15 17 15 17 14 15 13 14 13
7 3 3 4 7 3 2 2 3 2 5 2 2 2 2 3 5 1 2 2 6 6 9 7 7 3 2 10 14 11 14 12 13 17 19 20 22 20 19 19 20 19 17 17 17 16 18 17 15 15 15 11 12 13
2 5 5 5 6 4 3 2 2 1 3 4 2 2 1 5 2 3 2 3 13 11 5 1 3 4 5 6 11 13 15 16 16 19 21 20 19 19 19 17 17 17 17 19 20 19 18 18 17 17 15 14 13 14
5 7 8 4 4 4 4 4 5 4 2 1 2 1 2 2 1 2 2 6 11 12 8 6 5 1 3 9 3 9 18 16 16 17 18 21 22 23 24 24 21 20 18 16 18 20 20 20 18 17 16 15 14 14
5 5 6 5 2 2 1 1 1 1 1 2 2 1 2 1 3 3 5 8 7 8 6 4 5 4 5 5 2 2 2 14 14 16 16 17 19 21 23 24 24 22 20 18 16 16 17 17 16 16 15 14 14 14
7 5 5 8 3 3 2 2 2 2 2 1 1 1 4 2 2 3 4 3 5 6 6 6 5 5 4 7 10 8 5 3 10 10 13 19 18 18 18 20 17 18 17 16 17 16 16 16 17 17 17 17 16 14
4 3 7 3 3 0 1 3 2 2 2 3 1 2 2 4 5 4 2 5 7 7 7 5 6 7 6 6 6 9 13 10 7 14 23 23 23 21 19 18 17 17 16 17 16 16 16 15 16 17 16 15 14 13
2 8 4 2 4 4 2 1 4 4 3 3 1 2 1 1 3 5 6 7 9 11 11 13 15 17 17 12 9 8 8 12 16 14 14 17 27 25 22 21 21 20 21 21 17 15 16 16 17 17 17 16 16 16
7 3 4 3 2 2 2 1 3 5 6 4 6 6 8 8 11 8 3 5 6 7 9 11 11 10 11 11 11 13 13 12 14 16 18 18 14 12 23 24 20 22 23 23 22 20 19 19 18 17 17 17 15 14
2 0 2 2 2 3 2 2 2 1 1 2 2 4 4 3 3 3 5 3 2 2 4 6 9 10 9 14 17 15 14 16 17 15 13 14 17 20 17 20 21 20 24 26 23 22 21 19 17 17 15 13 13 13
4 5 6 2 1 2 2 1 1 2 3 4 3 0 0 1 1 2 5 5 6 6 8 10 13 15 17 18 18 17 19 13 12 13 14 14 14 13 15 19 24 21 21 23 25 24 22 21 18 16 16 16 15 15
Wind_Direction
357 356 358 358 2 7 7 5 3 357 189 203 189 188 193 195 195 197 196 193 198 189 292 247 233 152 167 175 305 345 153 213 278 214 198 143 176 177 164 220 195 188 153 149 134 138 256 203 157 140 201 173 119 105
1 357 358 359 0 4 7 6 4 351 289 180 194 190 196 199 198 197 204 205 211 222 243 247 247 223 227 234 225 265 323 296 191 222 149 133 180 164 167 198 202 185 168 159 187 200 238 168 143 144 161 149 132 121
1 2 360 1 1 4 6 7 8 14 178 172 194 198 198 198 195 197 198 204 208 196 308 256 250 266 256 223 230 182 255 263 235 228 139 159 201 157 170 224 149 203 171 153 153 201 207 189 98 145 145 149 144 140
358 2 2 3 5 6 7 10 16 38 100 160 181 193 193 191 196 191 191 200 206 189 221 251 247 234 244 247 246 250 273 261 280 186 107 136 161 63 208 175 150 185 172 160 187 251 124 98 193 161 135 141 142 142
355 358 4 3 6 8 10 14 21 44 98 119 135 162 174 181 183 185 194 204 206 182 232 282 271 228 222 222 239 250 260 247 251 118 195 153 160 127 285 75 159 185 164 168 193 174 139 146 142 148 140 135 140 136
357 354 0 5 7 11 11 21 35 36 32 167 175 169 178 171 179 180 184 223 215 213 243 266 257 252 247 240 238 226 235 230 211 165 155 151 120 91 207 197 279 188 136 157 152 174 165 152 154 156 142 142 138 136
357 355 358 5 6 12 13 14 30 36 34 28 205 172 178 189 190 182 196 202 208 203 193 184 251 232 255 274 354 27 138 138 135 137 148 134 154 137 168 203 183 182 214 195 150 163 144 156 149 151 148 150 151 155
3 2 2 3 5 7 16 9 7 19 41 44 73 150 179 180 188 195 212 127 174 194 227 243 244 213 199 137 274 300 83 84 34 109 52 132 131 144 182 242 172 175 139 143 152 160 156 151 145 153 160 154 149 151
2 360 358 358 1 2 7 16 352 345 17 76 55 77 104 89 62 169 160 169 184 181 218 215 200 208 172 84 80 333 72 122 33 280 118 105 136 200 211 192 151 151 146 136 135 140 146 151 151 143 146 159 158 159
354 350 349 352 355 1 2 10 28 317 329 28 28 53 100 99 77 73 81 151 168 197 241 268 117 38 174 70 66 47 333 108 105 296 111 99 204 234 254 164 142 142 141 137 120 130 145 143 152 156 156 157 169 169
352 352 353 352 354 357 1 2 25 32 355 342 343 61 121 181 200 163 210 286 205 197 207 293 64 126 68 68 69 360 105 263 122 237 131 175 193 174 154 138 136 135 138 138 140 137 144 147 144 149 158 174 175 179
351 345 341 344 346 350 355 0 2 31 58 355 303 201 172 199 219 208 202 170 211 146 126 29 73 64 102 101 95 11 339 330 108 197 148 178 203 114 116 117 125 129 131 140 162 156 158 165 162 161 167 161 171 177
344 342 343 347 342 342 342 350 1 337 297 236 125 349 353 317 21 326 290 45 46 107 156 165 111 137 206 201 171 155 141 304 81 45 176 230 139 129 133 139 129 134 139 145 153 162 162 163 168 167 156 165 174 179
335 337 340 348 349 336 333 342 1 22 56 348 66 0 58 11 48 351 333 335 318 170 127 154 158 162 156 63 348 74 303 59 359 69 251 184 137 134 138 139 142 137 158 166 166 166 165 171 172 175 177 167 172 175
329 327 327 345 343 334 336 3 32 52 28 39 25 36 97 197 228 268 272 265 324 144 155 186 47 80 46 64 59 102 27 247 228 221 172 134 135 143 144 154 160 165 168 170 165 161 163 164 173 178 177 180 183 187
325 332 316 334 344 336 0 65 43 14 89 82 51 49 205 178 306 352 343 3 52 99 27 333 66 45 5 130 129 203 194 203 257 42 124 141 144 146 153 162 169 171 174 163 166 168 165 166 168 169 175 187 193 199
326 276 301 326 346 346 13 30 25 68 52 98 107 96 317 85 44 12 343 354 0 345 4 354 115 199 132 217 195 191 170 130 105 106 138 154 158 161 163 162 164 168 167 162 153 161 162 160 161 153 157 166 177 178
324 324 331 329 342 350 340 358 322 262 87 116 145 192 84 120 169 274 357 10 30 22 6 354 301 3 161 163 319 168 133 129 131 141 151 162 163 165 170 170 162 156 153 152 160 164 164 165 160 163 166 163 163 167
322 326 329 326 335 337 328 321 322 298 144 160 169 177 167 227 226 272 1 6 10 5 341 345 320 274 329 62 117 119 131 134 129 148 156 162 172 193 173 165 149 157 162 165 171 175 163 162 174 177 179 177 179 182
307 317 340 331 301 305 277 266 294 280 182 181 177 206 192 191 209 346 313 332 356 349 331 250 237 140 69 33 184 180 168 166 154 137 151 160 174 180 170 165 173 174 169 169 168 155 157 166 181 183 180 175 180 184
311 282 321 333 161 247 267 270 245 30 20 278 202 203 202 166 170 206 259 252 203 238 262 250 56 336 251 216 189 177 176 184 191 192 180 168 170 174 168 175 173 175 173 172 174 173 179 181 183 183 184 184 193 206
273 315 322 339 209 231 254 244 240 220 226 297 174 203 231 159 190 214 216 213 226 220 231 274 280 277 228 192 178 189 182 186 194 200 191 185 177 178 179 176 176 176 181 183 182 182 182 181 186 194 195 197 206 197
300 309 295 252 230 229 255 238 214 199 196 236 187 211 235 191 195 182 204 215 223 235 237 238 239 238 234 186 183 167 174 183 189 182 182 185 184 185 186 184 186 181 184 183 184 188 189 193 189 194 195 202 179 177
274 257 238 236 210 249 191 237 224 232 192 192 243 232 228 174 138 105 247 219 239 224 213 240 245 182 217 182 179 180 179 189 186 183 186 180 185 188 189 191 194 197 195 183 187 187 188 194 195 194 197 198 187 190
219 234 202 243 217 184 216 219 202 207 217 201 221 288 258 138 142 197 221 11 71 84 108 270 78 67 341 252 206 200 193 189 194 190 188 186 188 186 188 187 189 191 189 189 190 192 194 195 194 195 198 201 203 204
227 208 192 220 193 186 212 175 188 198 201 149 231 276 55 115 144 234 65 31 57 65 59 48 32 310 38 48 17 224 203 202 200 202 199 197 196 194 190 190 189 191 203 207 204 200 198 198 197 199 199 203 207 207
235 210 199 224 252 145 33 322 169 153 148 199 238 114 114 156 224 88 106 56 64 42 26 351 310 284 301 314 336 340 305 185 206 214 205 200 206 212 212 202 201 205 206 208 211 214 209 213 214 207 206 202 206 208
242 238 168 159 185 201 130 7 98 196 214 112 74 173 181 164 91 91 99 67 60 49 32 25 24 16 345 288 281 288 292 278 231 237 206 193 202 208 214 219 220 216 222 217 215 212 211 216 213 207 212 210 211 214
245 178 122 89 63 98 209 179 224 49 61 44 51 11 64 72 115 111 6 322 323 341 358 353 338 331 324 313 313 281 262 262 244 196 195 193 189 199 205 209 213 216 208 207 215 212 213 215 209 211 212 215 214 208
146 138 93 114 155 198 219 172 91 95 95 87 45 322 310 211 213 235 257 263 270 281 286 285 293 297 303 301 298 277 272 255 245 244 249 221 218 218 216 218 215 213 206 210 215 212 210 206 207 212 217 222 225 221
136 113 124 141 175 183 102 332 304 296 293 285 277 264 271 291 312 324 334 320 297 282 277 286 297 297 298 294 287 289 288 273 264 254 244 242 244 245 223 218 221 217 216 215 216 218 215 214 218 224 227 229 230 217
142 325 87 121 120 85 16 41 19 2 295 253 258 256 263 253 268 283 295 292 249 249 273 282 296 301 294 273 264 270 272 264 261 253 257 258 256 244 246 228 218 220 219 219 217 211 210 212 215 213 208 204 206 207
68 53 48 53 197 184 120 95 27 4 38 24 2 328 5 88 207 347 360 4 352 303 285 282 279 275 272 275 280 283 264 276 250 254 249 246 254 249 240 237 224 219 216 215 209 207 208 207 205 203 200 208 210 211
Height
1336 1330 1324 1317 1310 1302 1292 1282 1273 1268 1268 1269 1273 1282 1289 1297 1304 1311 1317 1323 1327 1329 1332 1332 1334 1338 1341 1345 1345 1341 1336 1333 1333 1338 1343 1352 1360 1359 1364 1358 1360 1376 1382 1388 1398 1395 1397 1366 1370 1382 1385 1381 1382 1385
1336 1331 1325 1319 1312 1304 1295 1285 1274 1267 1267 1270 1275 1282 1289 1296 1303 1311 1316 1322 1326 1329 1330 1331 1333 1335 1336 1339 1345 1344 1336 1338 1329 1326 1335 1345 1353 1351 1351 1355 1353 1362 1358 1375 1380 1382 1366 1363 1364 1368 1372 1376 1381 1382
1337 1332 1326 1320 1313 1306 1297 1288 1276 1268 1270 1274 1278 1283 1286 1293 1300 1308 1315 1321 1324 1327 1330 1330 1332 1334 1335 1337 1339 1344 1343 1338 1329 1327 1327 1337 1340 1342 1343 1346 1345 1348 1348 1363 1369 1365 1363 1362 1364 1367 1369 1374 1379 1383
1337 1333 1328 1322 1316 1309 1301 1293 1284 1276 1276 1278 1281 1284 1286 1291 1298 1306 1312 1319 1324 1328 1330 1323 1324 1327 1328 1332 1332 1332 1333 1336 1330 1325 1323 1328 1334 1333 1334 1330 1337 1339 1346 1352 1356 1355 1359 1359 1361 1367 1372 1377 1379 1384
1338 1334 1329 1324 1319 1313 1306 1298 1292 1285 1282 1283 1286 1288 1291 1296 1300 1306 1313 1317 1321 1326 1324 1320 1318 1321 1322 1323 1325 1324 1327 1330 1330 1325 1328 1328 1329 1334 1335 1333 1333 1328 1336 1343 1349 1342 1348 1358 1361 1366 1370 1375 1380 1383
1339 1335 1331 1326 1321 1316 1309 1304 1299 1294 1289 1288 1289 1292 1296 1299 1303 1309 1314 1317 1317 1319 1326 1323 1317 1313 1317 1318 1320 1318 1320 1320 1323 1322 1320 1319 1321 1328 1336 1335 1327 1326 1329 1328 1332 1339 1345 1356 1362 1364 1367 1373 1379 1384
1339 1335 1332 1328 1324 1319 1314 1308 1304 1300 1294 1291 1292 1295 1297 1300 1303 1307 1310 1311 1313 1319 1318 1319 1317 1316 1315 1311 1309 1311 1306 1309 1309 1312 1313 1316 1324 1328 1332 1332 1325 1326 1327 1329 1334 1337 1347 1349 1356 1364 1369 1373 1379 1385
1340 1336 1333 1329 1325 1321 1317 1312 1307 1305 1302 1299 1295 1295 1298 1299 1302 1306 1308 1307 1309 1315 1317 1314 1313 1315 1312 1311 1311 1311 1305 1308 1305 1309 1313 1316 1321 1326 1328 1321 1320 1325 1328 1329 1332 1337 1341 1348 1357 1366 1372 1374 1380 1385
1341 1337 1333 1330 1326 1321 1317 1314 1309 1306 1305 1304 1303 1302 1301 1302 1303 1304 1307 1308 1310 1314 1311 1311 1309 1307 1308 1305 1308 1308 1306 1306 1309 1310 1312 1317 1323 1322 1315 1315 1318 1323 1328 1332 1331 1337 1347 1353 1357 1362 1366 1375 1380 1387
1342 1337 1333 1329 1325 1322 1317 1313 1310 1306 1306 1305 1305 1304 1306 1306 1306 1307 1308 1309 1309 1308 1308 1305 1304 1304 1306 1306 1306 1311 1312 1311 1315 1314 1311 1319 1320 1314 1314 1319 1321 1325 1331 1330 1330 1341 1348 1353 1357 1363 1369 1374 1379 1382
1341 1337 1333 1328 1325 1321 1318 1313 1310 1308 1307 1307 1306 1306 1307 1306 1307 1307 1307 1306 1306 1305 1306 1304 1304 1304 1307 1308 1309 1310 1312 1312 1310 1314 1314 1319 1318 1313 1314 1318 1323 1327 1329 1332 1338 1342 1349 1353 1359 1366 1372 1376 1379 1382
1340 1335 1331 1327 1323 1320 1317 1314 1311 1309 1308 1307 1306 1306 1307 1307 1305 1303 1303 1302 1305 1302 1303 1303 1305 1307 1309 1310 1312 1313 1310 1308 1309 1312 1314 1319 1317 1310 1308 1316 1322 1327 1331 1335 1342 1346 1351 1355 1361 1366 1370 1373 1377 1382
1339 1334 1330 1326 1321 1317 1315 1313 1311 1308 1306 1305 1305 1305 1305 1305 1310 1303 1304 1298 1303 1302 1304 1306 1308 1309 1310 1309 1310 1308 1311 1313 1307 1314 1313 1309 1306 1313 1319 1324 1325 1329 1334 1339 1346 1351 1354 1356 1361 1364 1368 1372 1375 1381
1337 1332 1329 1325 1320 1316 1313 1310 1309 1307 1305 1306 1305 1312 1311 1313 1314 1313 1312 1308 1305 1304 1305 1306 1306 1308 1308 1308 1307 1311 1313 1310 1314 1317 1307 1310 1311 1316 1319 1321 1325 1334 1342 1346 1349 1350 1352 1355 1359 1363 1367 1371 1375 1379
1335 1330 1326 1322 1318 1314 1310 1309 1307 1306 1307 1307 1308 1315 1313 1313 1313 1313 1313 1311 1307 1305 1306 1305 1303 1302 1306 1309 1309 1313 1318 1316 1312 1316 1310 1308 1311 1315 1321 1328 1334 1340 1343 1345 1346 1348 1352 1355 1359 1363 1366 1370 1374 1377
1331 1328 1325 1321 1316 1312 1309 1307 1306 1306 1306 1308 1311 1311 1310 1312 1311 1310 1309 1307 1306 1307 1306 1304 1305 1309 1308 1309 1309 1313 1309 1313 1311 1308 1308 1312 1317 1322 1326 1330 1334 1337 1340 1344 1346 1349 1353 1356 1358 1361 1364 1368 1372 1376
1327 1326 1323 1320 1315 1311 1309 1307 1306 1305 1306 1307 1313 1313 1312 1311 1311 1312 1310 1309 1308 1308 1311 1308 1309 1308 1309 1311 1309 1307 1315 1312 1311 1312 1312 1315 1318 1322 1328 1333 1336 1338 1340 1343 1346 1350 1352 1355 1358 1361 1364 1368 1372 1374
1324 1322 1320 1318 1314 1311 1309 1308 1307 1305 1306 1308 1310 1311 1311 1312 1313 1312 1311 1310 1309 1308 1308 1310 1308 1308 1315 1315 1318 1314 1313 1314 1314 1316 1318 1321 1325 1328 1331 1332 1333 1335 1338 1342 1347 1350 1352 1356 1358 1361 1364 1367 1370 1374
1322 1319 1317 1316 1314 1312 1311 1309 1308 1306 1307 1307 1307 1308 1309 1310 1310 1310 1310 1310 1310 1310 1309 1308 1308 1308 1309 1306 1308 1308 1310 1311 1313 1317 1320 1323 1324 1326 1328 1330 1332 1336 1340 1344 1348 1350 1353 1356 1360 1363 1365 1367 1370 1373
1319 1317 1314 1313 1312 1312 1311 1309 1308 1306 1305 1306 1306 1307 1307 1308 1309 1309 1309 1309 1309 1309 1309 1309 1308 1306 1306 1306 1306 1306 1309 1311 1314 1318 1321 1323 1324 1326 1328 1331 1335 1338 1342 1346 1349 1351 1354 1357 1361 1364 1366 1368 1370 1374
1315 1314 1312 1310 1310 1311 1310 1307 1306 1305 1304 1305 1304 1305 1306 1307 1308 1309 1310 1310 1311 1310 1309 1306 1306 1306 1307 1307 1307 1308 1310 1311 1314 1317 1319 1322 1325 1327 1331 1334 1337 1339 1342 1345 1348 1351 1354 1358 1361 1363 1365 1368 1371 1374
1313 1312 1310 1308 1308 1308 1306 1304 1304 1304 1305 1303 1304 1304 1304 1305 1305 1306 1307 1308 1307 1305 1305 1306 1306 1306 1306 1306 1307 1308 1310 1313 1315 1317 1319 1322 1325 1328 1331 1334 1336 1339 1342 1344 1347 1351 1355 1357 1360 1363 1366 1368 1370 1373
1311 1310 1309 1308 1307 1305 1303 1301 1302 1301 1302 1301 1300 1301 1300 1300 1300 1302 1304 1302 1301 1301 1302 1303 1304 1304 1305 1306 1307 1309 1310 1312 1314 1316 1319 1322 1325 1328 1330 1333 1335 1338 1341 1344 1347 1350 1353 1356 1359 1362 1364 1367 1369 1371
1309 1309 1306 1304 1303 1301 1300 1299 1299 1298 1298 1299 1298 1297 1296 1296 1298 1299 1300 1296 1296 1297 1299 1301 1302 1303 1304 1305 1306 1308 1311 1313 1314 1316 1319 1321 1324 1327 1329 1331 1335 1338 1340 1343 1346 1349 1352 1354 1357 1360 1362 1365 1367 1369
1308 1304 1304 1300 1297 1298 1297 1295 1293 1294 1297 1295 1295 1296 1293 1294 1299 1300 1298 1296 1297 1298 1299 1300 1301 1303 1304 1305 1306 1307 1309 1311 1312 1314 1317 1320 1323 1326 1329 1331 1334 1336 1339 1342 1344 1346 1349 1352 1354 1357 1360 1362 1364 1366
1302 1295 1295 1292 1291 1292 1290 1293 1294 1295 1292 1294 1294 1291 1292 1295 1297 1298 1298 1302 1302 1302 1302 1303 1304 1305 1305 1306 1305 1306 1307 1309 1311 1313 1315 1317 1320 1322 1325 1328 1331 1334 1336 1339 1341 1343 1346 1348 1351 1354 1356 1358 1360 1362
1294 1288 1287 1287 1288 1287 1289 1288 1289 1291 1294 1296 1292 1293 1295 1302 1301 1301 1304 1305 1305 1305 1305 1306 1306 1306 1306 1306 1306 1305 1303 1303 1307 1310 1313 1315 1318 1320 1323 1325 1327 1330 1333 1336 1338 1340 1342 1345 1347 1350 1352 1355 1357 1359
1285 1280 1283 1285 1287 1288 1290 1290 1291 1293 1291 1290 1291 1295 1297 1297 1300 1303 1304 1306 1306 1307 1307 1306 1306 1306 1306 1306 1306 1306 1306 1306 1307 1308 1309 1312 1315 1318 1321 1324 1326 1328 1330 1332 1334 1337 1339 1341 1343 1346 1348 1351 1352 1355
1280 1279 1281 1285 1288 1289 1289 1290 1290 1289 1292 1291 1295 1295 1295 1298 1301 1302 1304 1304 1305 1306 1306 1307 1307 1306 1306 1305 1305 1305 1306 1307 1308 1306 1307 1309 1311 1314 1317 1320 1322 1324 1326 1329 1331 1333 1336 1338 1340 1342 1345 1347 1349 1351
1279 1279 1282 1286 1288 1289 1289 1288 1289 1291 1292 1294 1295 1297 1297 1298 1300 1300 1301 1302 1302 1303 1304 1304 1305 1304 1304 1304 1303 1303 1304 1304 1305 1306 1307 1307 1308 1310 1312 1314 1317 1320 1322 1324 1327 1329 1332 1334 1337 1339 1341 1343 1345 1347
1279 1281 1283 1285 1286 1287 1287 1288 1289 1290 1292 1293 1294 1296 1297 1296 1295 1295 1296 1297 1297 1298 1299 1300 1301 1301 1301 1301 1301 1301 1300 1301 1301 1302 1302 1304 1305 1305 1305 1307 1311 1314 1317 1320 1322 1325 1327 1330 1332 1334 1337 1338 1340 1342
1282 1282 1284 1285 1286 1287 1288 1289 1289 1290 1291 1292 1293 1294 1295 1295 1296 1296 1296 1296 1295 1296 1297 1298 1298 1298 1298 1297 1298 1297 1297 1296 1296 1297 1297 1298 1299 1300 1302 1303 1305 1308 1311 1314 1316 1319 1322 1325 1327 1330 1332 1335 1337 1339
1284 1285 1286 1287 1287 1287 1289 1289 1289 1290 1291 1292 1292 1292 1293 1293 1295 1297 1297 1296 1296 1295 1295 1295 1295 1295 1294 1293 1293 1292 1293 1292 1291 1292 1293 1293 1294 1295 1297 1299 1300 1302 1305 1308 1311 1314 1317 1320 1323 1325 1328 1330 1332 1334